Location: Piotrkow Trybunalski
(51.4000°N, 19.6830°E)
Time: 17:06:45
(UTC+01:00)

ISS - Pass Details

Date: 27 January 2020
Orbit: 415 x 422 km, 51.6° (Epoch: 26 February)

Event Time Altitude Azimuth Distance (km) Brightness Sun altitude
Rises 17:35:55 0° 247° (WSW) 2,375 2.1 -11.6°
Reaches altitude 10° 17:38:02 10° 244° (WSW) 1,511 0.5 -11.9°
Maximum altitude 17:41:23 65° 163° (SSE) 470 -3.6 -12.4°
Enters shadow 17:43:22 22° 85° (E) 967 -2.5 -12.7°
